Find Starlink 4487

NORAD ID: 53531 Int'l Des: 2022-101 Owner: SPXS Country: US Constellation: starlink operational
LEOCIRCULAR

当前视图

正在加载3D地球...

About Starlink 4487

Starlink 4487 (NORAD 53531) is a starlink constellation satellite (v1.5) launched Aug 19, 2022 by SPXS of US. It operates in LEO, CIRCULAR orbit with a mass of 300.00 kg.

关于 Starlink 4487

正在加载描述...

即将过境

Passes for default location (London). Set your location on the main map for personalized predictions.

高度历史

Loading altitude history...

两行轨道根数

1 53531U 22101E 26168.92349470 .00000552 00000-0 52774-4 0 9995
2 53531 53.1601 344.0522 0001200 91.7381 268.3748 15.08833278211295
Epoch: Jun 17, 2026 • Age: 9 hours

当前状态

高度 556.5 km
速度 7.58 km/s
星下点 -46.89°S, 88.18°W
发射日期 Aug 19, 2022
运行时间 3.8 years
类型 internet

技术详情

分类 Payload
质量 300.00 kg
干质量 290.00 kg
总质量 300.00 kg
长度 0.20 m
直径 2.80 m
跨度 9.00 m
形状 Box + pan
制造商 SPXS
平台类型 Starlink
阶段状态 In Orbit
所有者/国家 SPXS/US

Most Searched